Flag for Canada Weather past 2 weeks in Windsor, Ontario, Canada

Now
50 °F

Clear.


Feels Like: 49 °F
Forecast: 46 / 65 °F
Wind: 3 mph from Northwest

Location: Windsor Weather Station

Current Time: Sep 17, 2014 at 1:29:41 AM

Latest Report: Sep 17, 2014 at 1:00 AM


Visibility: 15 mi

Pressure: 30.08 "Hg

Humidity: 82%

Dew point: 45 °F

Location of WindsorLocation

Historic Weather in Windsor — Graph

°F

Windsor temperature yesterday

Maximum temperature yesterday: 66 °F (at 3:00 PM)
Minimum temperature yesterday: 48 °F (at 11:00 PM)
Average temperature yesterday: 57 °F

Past Weeks' High & Low Weather Summary

 TemperatureHumidityPressure
High90 °F (Sep 5, 4:00 PM)100% (Sep 3, 2:00 AM)30.37 "Hg (Sep 3, 2:00 AM)
Low41 °F (Sep 14, 5:00 AM)46% (Sep 16, 5:00 PM)29.59 "Hg (Sep 10, 11:00 PM)
Average63 °F81%30.07 "Hg
* Reported Midnight between Sep 1 and Sep 2 — Midnight between Sep 16 and Sep 17, Windsor, Weather by CustomWeather, © 2014

Note: Actual official high and low records may vary slightly from our data, if they occured in-between our weather recording intervals... More about our weather records

Advertising

Windsor weather history for previous 24 hours

 ConditionsComfort  
Time TempWeatherWind HumidityBarometerVisibility
12:00 AM
Sep 17
54 °FClear.6 mph77%30.08 "Hg15 mi
11:00 PM
Sep 16
48 °FPassing clouds.No wind94%30.07 "Hg15 mi
10:00 PM52 °FPassing clouds.3 mph88%30.08 "Hg15 mi
9:00 PM55 °FPassing clouds.6 mph77%30.08 "Hg15 mi
8:00 PM55 °FPassing clouds.7 mph82%30.08 "Hg15 mi
7:00 PM61 °FScattered clouds.8 mph68%30.08 "Hg15 mi
6:00 PM63 °FScattered clouds.9 mph59%30.08 "Hg15 mi
5:00 PM66 °FPartly sunny.7 mph46%30.08 "Hg15 mi
4:00 PM64 °FPartly sunny.5 mph52%30.09 "Hg15 mi
3:00 PM66 °FScattered clouds.5 mph49%30.10 "Hg15 mi
2:00 PM63 °FPartly sunny.3 mph52%30.13 "Hg15 mi
1:00 PM63 °FPartly sunny.No wind59%30.14 "Hg15 mi
12:00 PM61 °FPartly sunny.2 mph63%30.15 "Hg15 mi
11:00 AM59 °FPassing clouds.6 mph72%30.16 "Hg15 mi
10:00 AM57 °FPassing clouds.6 mph77%30.16 "Hg15 mi
9:00 AM54 °FPassing clouds.5 mph82%30.16 "Hg15 mi
8:00 AM52 °FPassing clouds.8 mph88%30.16 "Hg15 mi
7:00 AM50 °FPassing clouds.5 mph94%30.14 "Hg10 mi
6:00 AM52 °FPassing clouds.7 mph94%30.13 "Hg12 mi
5:00 AM54 °FMostly cloudy.10 mph88%30.12 "Hg12 mi
4:00 AM54 °FOvercast.5 mph94%30.11 "Hg10 mi
3:00 AM52 °FPassing clouds.6 mph94%30.11 "Hg12 mi
2:00 AM54 °FPassing clouds.7 mph94%30.09 "Hg10 mi
1:00 AM55 °FPassing clouds.7 mph88%30.09 "Hg12 mi
Weather by CustomWeather, © 2014

See weather overviewHow to use our weather pages